Retour au catalogue

DMSP 5D-2 F11 DEB

ActifSSO
NORAD 28335·DEBRIS·🇺🇸 United States

Lancé Nov 28, 1991 depuis Vandenberg Space Force Base

Loading…

Prochains Passages (prochaines 24 heures)

TLE

VieillissantSource: Space-Track

Époque: Sep 10, 2026, 11:45 UTC

1 28335U 91082AY  26253.49013632  .00002598  00000-0  70354-3 0  9993
2 28335  98.5544 330.0319 0007816 359.7389   0.3799 14.48531621687355

Suivez DMSP 5D-2 F11 DEB en temps réel avec AllMySat

Download on the App Store